[[{"header":{"parameterUnit":"m.s-1","parameterCategory":1,"la1":30.2991,"la2":30.254,"lo1":-89.0895,"lo2":-89.0444,"dy":0.0017,"dx":0.0017,"nx":28,"ny":28,"refTime":"2025-01-15T03:00:00:Z","depth":0,"parameterNumber":2,"parameterNumberName":"U-component_of_WINDS"},"data":[0,0,0,0,0,0,0,0,0,0,0,0,0,0,0,0,0,0,0,0,0,0,0,0,0,0,0,0,0,0,0,0,0,0,0,0,0,0,0,0,0,0,0,0,0,0,0,0,0,0,0,0,0,0,0,0,0,0,1.2366,1.2366,0,1.236,1.236,1.236,1.2368,1.2368,1.2368,1.2368,1.236,1.236,1.2359,0,0,0,0,0,0,0,0,0,0,0,0,0,1.2381,1.238,1.2366,1.2366,1.2366,1.236,1.236,1.236,1.2368,1.2368,1.2368,1.2368,1.236,1.236,1.2359,0,0,0,0,0,0,0,0,0,0,0,0,0,1.2375,1.238,1.2366,1.2369,1.2369,1.236,1.236,1.236,1.2367,1.2368,1.2368,1.2369,1.236,1.236,1.2359,1.2347,0,0,1.2357,1.2357,0,0,0,0,0,0,0,0,1.2375,1.2374,1.2368,1.2369,1.2369,1.2365,1.2363,1.2356,1.2367,1.2368,1.2368,1.2369,1.2361,1.2361,1.2359,1.2346,1.2346,1.2357,1.2356,1.2356,1.2356,0,0,0,0,0,0,0,1.2375,1.2374,1.2364,1.2368,1.2369,1.237,1.2369,1.2361,1.2362,1.2368,1.2368,1.2368,1.2361,1.2359,1.2358,1.2346,1.2357,1.2356,1.2356,1.2356,1.2322,1.2322,0,0,0,0,0,0,1.2376,1.2375,1.2364,1.2363,1.2373,1.2369,1.2369,1.2366,1.2362,1.2362,1.2368,1.2368,1.236,1.2359,1.2358,1.2343,1.2356,1.2355,1.2355,1.2323,1.2322,1.2322,0,0,0,0,0,0,1.2376,1.2375,1.2364,1.2369,1.2368,1.2368,1.2365,1.2366,1.2363,1.2362,1.2362,1.2365,1.2361,1.2359,1.235,1.2343,1.2355,1.2355,1.2323,1.2323,1.2322,1.2312,0,0,0,0,0,0,1.2376,1.2375,1.237,1.2369,1.2368,1.2356,1.2365,1.2365,1.2362,1.2363,1.236,1.236,1.2361,1.2351,1.2349,1.2342,1.2354,1.2324,1.2323,1.2322,1.2313,1.2311,1.231,0,0,0,0,0,1.2377,1.2367,1.237,1.2369,1.2362,1.2356,1.2355,1.2357,1.2362,1.2357,1.2356,1.236,1.2344,1.235,1.2348,1.234,1.2324,1.2323,1.2322,1.2314,1.2312,1.231,0,0,0,0,0,0,1.2367,1.2367,1.237,1.236,1.2358,1.2357,1.2351,1.2354,1.235,1.2351,1.2353,1.2352,1.2342,1.234,1.2346,1.2328,1.2335,1.2333,1.2329,1.2327,1.2325,1.2325,1.2353,0,0,0,0,0,1.2364,1.2359,1.2359,1.235,1.2349,1.235,1.2347,1.2349,1.2347,1.2346,1.2344,1.2341,1.2335,1.2331,1.2326,1.2313,1.2312,1.2307,1.2306,1.2304,1.2303,1.2295,1.2293,1.2319,1.2319,1.2319,0,0,1.2356,1.2356,1.2353,1.2348,1.2347,1.2341,1.2349,1.2343,1.2338,1.2344,1.2335,1.2334,1.2331,1.2319,1.2314,1.2318,1.2296,1.2303,1.2302,1.2301,1.2294,1.2292,1.2289,1.2318,1.2318,1.2318,0,0,1.234,1.234,1.2332,1.2331,1.2329,1.233,1.2328,1.2327,1.2327,1.2318,1.2322,1.2316,1.2307,1.2304,1.2301,1.2285,1.2287,1.2283,1.2273,1.2266,1.2264,1.2262,1.2256,1.2253,1.2282,1.2282,1.2282,0,1.2331,1.2323,1.2328,1.2321,1.2318,1.2325,1.2317,1.2315,1.2311,1.2309,1.2313,1.2301,1.2299,1.2287,1.2283,1.2281,1.2278,1.2283,1.2264,1.2263,1.2261,1.2254,1.2252,1.2281,1.2281,1.2281,1.2281,0,1.2312,1.2307,1.2301,1.2297,1.2295,1.2287,1.2289,1.2286,1.2288,1.2289,1.2279,1.2278,1.2272,1.227,1.2272,1.2258,1.226,1.2264,1.2271,1.2258,1.2252,1.2249,1.228,1.228,1.2281,1.2281,0,0,1.2288,1.2288,1.2286,1.2284,1.2283,1.2278,1.2271,1.2267,1.2263,1.226,1.2254,1.2246,1.225,1.2247,1.2249,1.2243,1.2229,1.2248,1.2248,1.2244,1.2213,1.2208,1.2205,1.2232,1.2231,1.2231,1.2213,0,1.2271,1.2259,1.2263,1.2251,1.2245,1.2252,1.2245,1.2244,1.2244,1.2239,1.2239,1.2233,1.224,1.2238,1.2233,1.2232,1.2223,1.2234,1.2224,1.2224,1.2223,1.2202,1.2198,1.218,1.221,1.221,1.221,0,1.2249,1.2247,1.2234,1.2234,1.2231,1.2226,1.2222,1.2217,1.2215,1.2216,1.2213,1.2216,1.2209,1.2217,1.2206,1.2213,1.221,1.2209,1.2208,1.2206,1.2215,1.2198,1.2175,1.2172,1.2206,1.2206,1.2207,0,1.2231,1.2225,1.2216,1.2215,1.2215,1.221,1.221,1.2209,1.2206,1.2202,1.22,1.2195,1.2192,1.2189,1.219,1.2196,1.2178,1.2187,1.2178,1.2177,1.2172,1.2172,1.2146,1.2172,1.2172,1.2172,1.2172,0,1.2211,1.2203,1.2208,1.2203,1.2193,1.2198,1.2189,1.2189,1.2188,1.2182,1.2188,1.2182,1.2185,1.218,1.2181,1.2171,1.217,1.2169,1.2169,1.2168,1.2168,1.2164,1.2165,1.2172,1.2172,1.2172,1.2172,0,1.2189,1.2192,1.2183,1.2184,1.2184,1.2177,1.2178,1.2172,1.2174,1.2167,1.2165,1.2167,1.2161,1.2163,1.2156,1.2156,1.2143,1.2146,1.2144,1.2144,1.2134,1.2135,1.2104,1.21,1.213,1.213,1.213,0,1.2175,1.2169,1.2169,1.2166,1.2166,1.2161,1.2158,1.2163,1.2159,1.2157,1.2152,1.2146,1.2142,1.2131,1.2131,1.2126,1.2127,1.2117,1.2127,1.2125,1.2126,1.2125,1.2124,1.2115,1.2115,1.2114,1.2114,0,1.2149,1.2151,1.2148,1.2145,1.2141,1.2139,1.2137,1.2134,1.2138,1.2134,1.2129,1.2125,1.2119,1.2113,1.2108,1.2107,1.211,1.2112,1.2109,1.2106,1.2105,1.2104,1.2137,1.2112,1.2112,1.2112,1.2112,1.2112,1.213,1.2124,1.2124,1.212,1.2119,1.2117,1.2112,1.2114,1.2109,1.2104,1.2108,1.21,1.2099,1.2093,1.2091,1.2085,1.2089,1.2085,1.2084,1.2083,1.2081,1.2108,1.2084,1.2085,1.2085,1.2085,1.2085,0,1.2103,1.2104,1.21,1.2097,1.2094,1.21,1.2098,1.2094,1.2088,1.2086,1.2082,1.2076,1.207,1.207,1.2065,1.206,1.2062,1.2058,1.2058,1.2057,1.2078,1.2081,1.2057,1.2057,1.2057,1.2057,1.2057,1.2057,1.2089,1.208,1.2082,1.2073,1.2074,1.2067,1.2066,1.2064,1.2063,1.2055,1.2051,1.2052,1.2051,1.2045,1.204,1.2041,1.2038,1.2033,1.2034,1.2053,1.2056,1.2058,1.206,1.2033,1.2033,1.2013,1.2013,1.2013]},{"header":{"parameterUnit":"m.s-1","parameterCategory":1,"la1":30.2991,"la2":30.254,"lo1":-89.0895,"lo2":-89.0444,"dy":0.0017,"dx":0.0017,"nx":28,"ny":28,"refTime":"2025-01-15T03:00:00:Z","depth":0,"parameterNumber":3,"parameterNumberName":"V-component_of_WINDS"},"data":[0,0,0,0,0,0,0,0,0,0,0,0,0,0,0,0,0,0,0,0,0,0,0,0,0,0,0,0,0,0,0,0,0,0,0,0,0,0,0,0,0,0,0,0,0,0,0,0,0,0,0,0,0,0,0,0,0,0,-2.1161,-2.1162,0,-2.1202,-2.1203,-2.1203,-2.116,-2.1158,-2.1156,-2.1155,-2.1196,-2.1199,-2.1201,0,0,0,0,0,0,0,0,0,0,0,0,0,-2.1045,-2.1047,-2.1161,-2.1162,-2.1162,-2.1202,-2.1203,-2.1203,-2.116,-2.1158,-2.1156,-2.1154,-2.1195,-2.1198,-2.1202,0,0,0,0,0,0,0,0,0,0,0,0,0,-2.1092,-2.1048,-2.1161,-2.1145,-2.1144,-2.1202,-2.1203,-2.1203,-2.116,-2.1158,-2.1155,-2.1153,-2.1194,-2.1198,-2.1202,-2.1277,0,0,-2.1214,-2.1216,0,0,0,0,0,0,0,0,-2.1089,-2.1096,-2.1147,-2.1146,-2.1145,-2.1173,-2.1177,-2.1228,-2.1161,-2.1154,-2.1155,-2.1152,-2.1191,-2.1195,-2.1208,-2.1279,-2.1281,-2.1215,-2.1217,-2.1219,-2.122,0,0,0,0,0,0,0,-2.1086,-2.1094,-2.1177,-2.1148,-2.1147,-2.1136,-2.114,-2.1186,-2.1186,-2.1155,-2.1152,-2.1157,-2.119,-2.1204,-2.1209,-2.1281,-2.1215,-2.1218,-2.1221,-2.1222,-2.1417,-2.142,0,0,0,0,0,0,-2.1084,-2.1092,-2.1176,-2.1179,-2.1111,-2.114,-2.1145,-2.1167,-2.1185,-2.1186,-2.1159,-2.1155,-2.1199,-2.1204,-2.121,-2.13,-2.1219,-2.1223,-2.1225,-2.1414,-2.1418,-2.1421,0,0,0,0,0,0,-2.1082,-2.1092,-2.1174,-2.1134,-2.1144,-2.1145,-2.117,-2.1169,-2.1183,-2.1189,-2.1188,-2.1174,-2.1197,-2.1204,-2.1261,-2.1301,-2.1224,-2.1228,-2.1411,-2.1416,-2.1419,-2.148,0,0,0,0,0,0,-2.1079,-2.1092,-2.112,-2.1135,-2.1146,-2.1225,-2.1173,-2.1172,-2.1191,-2.1185,-2.1203,-2.1203,-2.1195,-2.1255,-2.1265,-2.1305,-2.1231,-2.1408,-2.1413,-2.1418,-2.1475,-2.1486,-2.1495,0,0,0,0,0,-2.1075,-2.1136,-2.1122,-2.1133,-2.1182,-2.1227,-2.1234,-2.1224,-2.1194,-2.1223,-2.1226,-2.1203,-2.1295,-2.1261,-2.1272,-2.1314,-2.1405,-2.1412,-2.1418,-2.147,-2.1484,-2.1495,0,0,0,0,0,0,-2.1125,-2.1137,-2.1122,-2.119,-2.1208,-2.122,-2.1256,-2.1238,-2.1265,-2.1259,-2.1245,-2.125,-2.131,-2.1317,-2.128,-2.1388,-2.1345,-2.1354,-2.1381,-2.1394,-2.1404,-2.1402,-2.1234,0,0,0,0,0,-2.1144,-2.118,-2.1188,-2.1247,-2.1257,-2.1255,-2.1274,-2.1265,-2.1283,-2.1291,-2.1298,-2.1317,-2.135,-2.1372,-2.1403,-2.1475,-2.1479,-2.1509,-2.1519,-2.1528,-2.1536,-2.1575,-2.1589,-2.1441,-2.1441,-2.1441,0,0,-2.1183,-2.1194,-2.1218,-2.1257,-2.127,-2.1308,-2.1262,-2.1304,-2.1332,-2.1297,-2.1352,-2.1358,-2.1378,-2.1443,-2.1472,-2.1451,-2.1577,-2.1536,-2.1543,-2.1546,-2.1583,-2.1597,-2.161,-2.1446,-2.1445,-2.1444,0,0,-2.1275,-2.1286,-2.1337,-2.1351,-2.1372,-2.137,-2.1382,-2.1397,-2.14,-2.1455,-2.143,-2.1463,-2.152,-2.1535,-2.1551,-2.1648,-2.1628,-2.1659,-2.1714,-2.1752,-2.1764,-2.1774,-2.181,-2.1823,-2.1666,-2.1667,-2.1667,0,-2.1321,-2.1377,-2.1365,-2.1409,-2.1427,-2.1398,-2.1449,-2.1463,-2.1493,-2.1506,-2.1482,-2.1554,-2.1565,-2.1634,-2.1658,-2.1671,-2.1685,-2.1657,-2.1763,-2.1774,-2.1783,-2.1817,-2.1831,-2.167,-2.167,-2.1669,-2.1669,0,-2.1434,-2.1473,-2.1511,-2.1541,-2.1564,-2.1611,-2.1606,-2.163,-2.1619,-2.162,-2.1676,-2.1689,-2.1722,-2.1737,-2.1726,-2.1805,-2.1791,-2.1765,-2.1722,-2.1801,-2.1833,-2.1846,-2.1675,-2.1674,-2.1673,-2.1672,0,0,-2.1558,-2.1581,-2.1595,-2.1609,-2.163,-2.166,-2.1706,-2.1739,-2.176,-2.1781,-2.182,-2.1869,-2.1846,-2.1863,-2.1854,-2.1888,-2.1966,-2.1858,-2.1858,-2.1879,-2.2054,-2.2075,-2.209,-2.1952,-2.1955,-2.1956,-2.2053,0,-2.1651,-2.1732,-2.1722,-2.1799,-2.1836,-2.1809,-2.1849,-2.1866,-2.1868,-2.19,-2.1902,-2.1937,-2.1903,-2.1914,-2.1946,-2.195,-2.2001,-2.1942,-2.1989,-2.1991,-2.1986,-2.2107,-2.2128,-2.2219,-2.2065,-2.2068,-2.2069,0,-2.177,-2.1797,-2.1878,-2.1893,-2.1908,-2.1945,-2.1975,-2.2005,-2.2024,-2.2023,-2.2043,-2.2027,-2.2074,-2.2029,-2.2094,-2.2054,-2.2072,-2.2077,-2.208,-2.2085,-2.2036,-2.2116,-2.2247,-2.2262,-2.2088,-2.2087,-2.2085,0,-2.1855,-2.191,-2.1966,-2.1978,-2.1998,-2.2024,-2.2033,-2.205,-2.207,-2.2096,-2.2109,-2.214,-2.2157,-2.2181,-2.2175,-2.2143,-2.2241,-2.2195,-2.2242,-2.2243,-2.2265,-2.2264,-2.2403,-2.2275,-2.2275,-2.2274,-2.2274,0,-2.196,-2.2011,-2.2004,-2.2039,-2.2095,-2.2084,-2.214,-2.2145,-2.216,-2.2196,-2.2173,-2.2207,-2.2196,-2.2229,-2.2224,-2.2278,-2.2286,-2.2287,-2.2285,-2.229,-2.229,-2.2303,-2.2297,-2.2278,-2.2277,-2.2277,-2.2276,0,-2.2065,-2.2062,-2.2121,-2.2135,-2.214,-2.2181,-2.2192,-2.2225,-2.2225,-2.227,-2.228,-2.2281,-2.2319,-2.2314,-2.2356,-2.2353,-2.2421,-2.2411,-2.2415,-2.2413,-2.2461,-2.2457,-2.2614,-2.2634,-2.2492,-2.2493,-2.2494,0,-2.2133,-2.2172,-2.2189,-2.2212,-2.2223,-2.2259,-2.228,-2.227,-2.2293,-2.2317,-2.2347,-2.2383,-2.2411,-2.2473,-2.2477,-2.2509,-2.2501,-2.2553,-2.2506,-2.2509,-2.2503,-2.2502,-2.2506,-2.2563,-2.2565,-2.2566,-2.2567,0,-2.2255,-2.2251,-2.2283,-2.2314,-2.234,-2.2364,-2.2385,-2.2405,-2.2397,-2.2424,-2.2462,-2.2484,-2.2527,-2.2564,-2.2594,-2.2603,-2.2585,-2.2582,-2.2595,-2.2601,-2.2602,-2.2603,-2.2442,-2.2579,-2.2578,-2.2577,-2.2576,-2.2576,-2.2344,-2.2377,-2.2396,-2.2431,-2.2447,-2.2468,-2.2499,-2.2504,-2.2536,-2.2571,-2.2562,-2.2606,-2.2624,-2.2664,-2.2676,-2.271,-2.2691,-2.2709,-2.2714,-2.2719,-2.2726,-2.2596,-2.2716,-2.2715,-2.2715,-2.2715,-2.2714,0,-2.2466,-2.2476,-2.2509,-2.254,-2.2569,-2.2548,-2.2571,-2.2596,-2.2635,-2.2654,-2.2683,-2.2727,-2.2762,-2.2769,-2.2803,-2.2829,-2.2821,-2.2838,-2.2837,-2.284,-2.274,-2.2726,-2.2844,-2.2844,-2.2844,-2.2844,-2.2844,-2.2844,-2.2533,-2.2589,-2.2588,-2.2651,-2.2661,-2.2704,-2.2719,-2.2739,-2.2754,-2.2805,-2.2834,-2.2838,-2.2853,-2.2887,-2.2918,-2.2919,-2.2933,-2.2954,-2.2952,-2.2859,-2.2846,-2.2834,-2.2821,-2.2957,-2.2957,-2.3049,-2.305,-2.305]}]]